Вернуться в каталог

STARLINK-37636

АктивенСвязьSSO
NORAD 69143·PAYLOAD·🇺🇸 United States

Запущен May 20, 2026 с Vandenberg Space Force Base

Loading…

Ближайшие Пролёты (ближайшие 24 часа)

TLE

СвежийSource: CelesTrak SupGP

Эпоха: Sep 15, 2026, 02:48 UTC

1 69143C 26110V   26258.11715278 -.00216780  00000+0 -67215-2 0  2584
2 69143  97.2850  93.3041 0001637  89.4000 300.7174 15.33585264    19

Отслеживайте STARLINK-37636 в реальном времени с AllMySat

Download on the App Store